Location: Bonningues
(50.7927°N, 2.0150°E)
Time: 20:55:22
(UTC+00:00)

Cosmos 2360 Rocket - Pass Details

Date: 08 August 2020
Orbit: 833 x 845 km, 71.0° (Epoch: 22 September)

Event Time Altitude Azimuth Distance (km) Brightness Sun altitude
Rises 22:10:12 0° 331° (NNW) 3,417 7.0 -19.4°
Reaches altitude 10° 22:12:43 10° 336° (NNW) 2,478 5.9 -19.6°
Maximum altitude 22:18:19 58° 55° (NE) 987 2.5 -20.0°
Enters shadow 22:20:49 32° 119° (ESE) 1,412 2.9 -20.1°
